Location: Gwatt
(46.7204°N, 7.6223°E)
Time: 23:23:26
(UTC+00:00)

Envisat - Pass Details

Date: 02 December 2020
Orbit: 764 x 766 km, 98.1° (Epoch: 19 January)

Event Time Altitude Azimuth Distance (km) Brightness Sun altitude
Rises 17:38:14 0° 204° (SSW) 3,221 6.8 -19.1°
Reaches altitude 10° 17:41:04 10° 221° (SW) 2,300 6.2 -19.5°
Maximum altitude 17:44:50 21° 269° (W) 1,682 5.7 -20.2°
Drops below altitude 10° 17:48:39 10° 317° (NW) 2,313 5.9 -20.8°
Sets 17:51:32 0° 334° (NNW) 3,245 6.5 -21.3°
